Weather History for Peru, IN

Change the Weather History Date:

Monday, August 19, 2013

  Actual Average Record
Temperature  
Mean Temperature 70 °F -  
Max Temperature 83 °F 78 °F 88 °F (2010)
Min Temperature 59 °F 61 °F 55 °F (2012)
Cooling Degree Days 6    
Growing Degree Days 20 (Base 50)    
Moisture  
Dew Point 62 °F    
Average Humidity 75    
Maximum Humidity 95    
Minimum Humidity 50    
Precipitation  
Precipitation 0.00 in - - ()
Sea Level Pressure  
Sea Level Pressure 30.12 in    
Wind  
Wind Speed 3 mph (SW)    
Max Wind Speed 6 mph    
Max Gust Speed -    
Visibility 10 miles    
Events      
Averages and records for this station are not official NWS values.
T = Trace of Precipitation, MM = Missing Value Source: NWS Daily Summary

Daily Weather History Graph

Daily Weather History Graph

Search for Another Location

Airport:

Trip Planner

Search our weather history database for the weather conditions in past years. The results will help you decide how hot, cold, wet, or windy it might be!

Date:

Astronomy

Aug. 19, 2013 Rise Set
Actual Time 6:59 AM EDT 8:36 PM EDT
Civil Twilight 6:30 AM EDT 9:05 PM EDT
Nautical Twilight 5:55 AM EDT 9:40 PM EDT
Astronomical Twilight 5:17 AM EDT 10:17 PM EDT
Moon 7:27 PM EDT (8/19) 5:17 AM EDT (8/19)
Length of Visible Light 14h 35m
Length of Day
13h 37m
Waxing Gibbous, 97% of the Moon is Illuminated
Aug 19
Waxing Gibbous
Aug 20
Full
Aug 28
Last Quarter
Sep 5
New
Sep 12
First Quarter

Hourly Weather History & Observations

Time (EDT) Temp. Heat Index Dew Point Humidity Pressure Visibility Wind Dir Wind Speed Gust Speed Precip Events Conditions
12:58 AM 63.7 °F - 61.3 °F 92% 30.13 in 10.0 mi SSE 2.3 mph - N/A   Clear
1:58 AM 62.1 °F - 60.3 °F 94% 30.13 in 10.0 mi SSE 4.6 mph - N/A   Partly Cloudy
2:58 AM 62.6 °F - 58.6 °F 87% 30.12 in 10.0 mi SSE 3.5 mph - N/A   Clear
3:58 AM 61.5 °F - 57.7 °F 87% 30.12 in 10.0 mi SSE 2.3 mph - N/A   Clear
4:58 AM 59.7 °F - 57.7 °F 93% 30.12 in 10.0 mi Calm Calm - N/A   Clear
5:58 AM 61.2 °F - 57.9 °F 89% 30.12 in 10.0 mi SE 2.3 mph - N/A   Clear
6:58 AM 59.5 °F - 57.9 °F 94% 30.14 in 9.0 mi Calm Calm - N/A   Clear
7:58 AM 60.4 °F - 59.0 °F 95% 30.14 in 10.0 mi Calm Calm - N/A   Clear
8:58 AM 66.9 °F - 61.5 °F 83% 30.15 in 10.0 mi NNW 1.2 mph - N/A   Clear
9:58 AM 71.6 °F - 64.4 °F 78% 30.15 in 10.0 mi SW 2.3 mph - N/A   Scattered Clouds
10:30 AM 75.2 °F - 64.4 °F 69% 30.14 in 10.0 mi WSW 3.5 mph - N/A   Partly Cloudy
10:58 AM 77.0 °F - 64.4 °F 65% 30.14 in 10.0 mi West 4.6 mph - N/A   Scattered Clouds
11:58 AM 78.4 °F - 66.0 °F 66% 30.14 in 10.0 mi Variable 3.5 mph - N/A   Clear
12:58 PM 77.4 °F - 64.4 °F 64% 30.14 in 10.0 mi West 3.5 mph - N/A   Mostly Cloudy
1:58 PM 81.0 °F 82.7 °F 64.8 °F 58% 30.13 in 10.0 mi West 5.8 mph - N/A   Scattered Clouds
2:58 PM 82.6 °F 83.9 °F 64.0 °F 53% 30.12 in 10.0 mi West 5.8 mph - N/A   Partly Cloudy
3:58 PM 82.8 °F 83.6 °F 62.4 °F 50% 30.11 in 10.0 mi Variable 5.8 mph - N/A   Clear
4:58 PM 82.8 °F 84.3 °F 64.4 °F 54% 30.10 in 10.0 mi West 5.8 mph - N/A   Clear
5:58 PM 81.7 °F 83.0 °F 63.5 °F 54% 30.09 in 10.0 mi WNW 5.8 mph - N/A   Clear
6:58 PM 80.6 °F 82.2 °F 64.0 °F 57% 30.08 in 10.0 mi WNW 4.6 mph - N/A   Clear
7:58 PM 78.1 °F - 63.9 °F 61% 30.07 in 10.0 mi West 2.3 mph - N/A   Clear
8:58 PM 73.0 °F - 64.8 °F 75% 30.07 in 10.0 mi SSW 2.3 mph - N/A   Clear
9:58 PM 68.9 °F - 64.2 °F 85% 30.09 in 10.0 mi Calm Calm - N/A   Clear
10:58 PM 68.0 °F - 63.9 °F 87% 30.10 in 10.0 mi Calm Calm - N/A   Clear
11:58 PM 65.7 °F - 63.0 °F 91% 30.11 in 10.0 mi SSE 2.3 mph - N/A   Clear